Tracking 30922 objects as of 2-Jul-2025
HD Live streaming from Space Station
objects crossing your sky now

PSLV R/B

Track PSLV R/B now!
10-day predictions


NORAD ID: 39636
Int'l Code: 2014-017B
Perigee: 262.4 km
Apogee: 18,382.3 km
Inclination: 19.0 °
Period: 326.1 minutes
Semi major axis: 15693 km
RCS: Unknown
Launch date: April 4, 2014
Source: India (IND)
Launch site: SRIHARIKOTA (SRI)

Note: This is a ROCKET BODY
Your satellite tracking list
Your tracking list is empty




NASA's NSSDC Master Catalog

Two Line Element Set (TLE):
1 39636U 14017B   25181.30480170  .00008875  00000-0  93889-3 0  9998
2 39636  19.0089 175.7070 5773110 249.0761  42.1204  4.41600204168409
Source of the keplerian elements: AFSPC